Location: Kerfichant
(47.7554°N, 3.3957°W)
Time: 18:33:31
(UTC+00:00)

Daily predictions for brighter satellites

Satellite Brightness Start Highest point End
(mag) Time Altitude Azimuth Time Altitude Azimuth Time Altitude Azimuth
SPOT 1/Viking Rocket 4.4 20:15:22 10° SE 20:20:03 35° ENE 20:24:46 10° N
NOSS 2-1 (E) 3.3 20:18:17 10° SSW 20:21:22 38° ESE 20:24:32 10° NE
Cosmos 1092 Rocket 4.1 20:15:20 10° S 20:21:32 65° E 20:27:49 10° NNE
Cosmos 1076 Rocket 4.5 20:18:09 10° SSW 20:22:25 54° WNW 20:26:43 10° N
Cosmos 2026 Rocket 4.2 20:19:07 10° SSE 20:25:14 56° E 20:31:17 10° NNE
SL-16 R/B 2.5 20:20:37 10° NNW 20:26:17 70° WSW 20:31:54 10° SSE
Meteor 2-15 Rocket 4.5 20:20:13 10° N 20:26:20 82° E 20:32:25 10° SSE
IGS 5A 3.6 20:24:17 10° SSE 20:28:22 60° ENE 20:32:27 10° N
GP-B 3.8 20:24:55 10° NNE 20:29:01 35° E 20:33:03 10° SSE
Meteor 1-26 Rocket 4.3 20:24:37 10° N 20:30:32 83° ENE 20:36:13 10° SSE
Cosmos 1151 Rocket 3.3 20:27:02 10° N 20:31:20 52° ENE 20:35:36 10° SSE
Cosmos 1371 Rocket 4.1 20:26:37 10° NNW 20:32:01 71° ENE 20:37:20 10° SSE
Cosmos 1680 Rocket 3.5 20:26:55 10° SSW 20:32:09 72° ESE 20:37:23 10° NNE
NOSS 3-1 (C) 4.3 20:25:23 10° NW 20:32:36 64° NE 20:40:55 11° SE
Lacrosse 5 3.7 20:33:37 10° ESE 20:33:56 10° ESE 20:34:33 10° ESE
Cosmos 2112 Rocket 4.0 20:28:46 10° S 20:33:59 65° ESE 20:39:12 10° NNE
Cosmos 1271 Rocket 3.1 20:31:23 10° NNW 20:35:24 72° W 20:39:22 10° S
Okean 3 Rocket 4.0 20:32:40 10° SSE 20:36:57 45° E 20:41:18 10° NNE
ERS-2 2.0 20:37:55 10° NNE 20:41:34 67° ESE 20:45:10 10° S
MetOp-B 4.3 20:36:56 10° SSE 20:42:11 59° ENE 20:47:28 10° N
Cosmos 2237 4.3 20:38:45 10° NNW 20:44:30 83° WSW 20:50:13 10° SSE
COSMOS 2487 4.1 20:45:40 14° ESE 20:46:34 15° E 20:48:38 10° ENE
Cosmos 1515 Rocket 4.4 20:44:30 10° N 20:48:33 34° ENE 20:51:44 15° SE
COSMOS 2428 3.7 20:44:06 10° NNW 20:49:18 34° NE 20:53:52 13° ESE
Cosmos 1428 Rocket 4.4 20:44:15 10° S 20:50:22 85° E 20:56:30 10° N
USA 229 DEB 4.3 20:43:41 10° NW 20:50:45 54° NE 20:57:36 13° ESE
GEOS 3 Rocket 3.6 20:45:36 10° NE 20:50:51 90° NNW 20:55:59 10° SW
USA 229 4.4 20:43:47 10° NW 20:50:51 54° NE 20:57:42 13° ESE
COSMOS 2455 3.4 20:46:52 10° S 20:52:17 37° ESE 20:57:46 10° NE
Cosmos 292 Rocket 3.9 20:51:22 10° NNW 20:56:08 64° ENE 20:59:58 16° SE
Meteor 2-3 Rocket 4.2 20:51:33 10° SSW 20:57:13 65° WNW 21:02:59 10° N
Terra 3.2 20:54:30 13° ESE 20:57:38 24° ENE 21:01:25 10° N
Cosmos 1328 Rocket 3.5 20:53:15 10° N 20:57:43 74° E 21:01:43 12° SSE
Ariane Rocket 3.8 20:53:17 10° S 20:58:13 51° W 21:03:10 10° NNW
Cosmos 1809 Rocket 4.5 20:52:24 10° S 20:58:29 67° E 21:04:34 10° NNE
Cosmos 2360 Rocket 2.3 20:53:54 10° NNW 20:59:34 82° WSW 21:04:37 13° SSE
Cosmos 1766 Rocket 3.5 20:59:06 10° S 21:03:29 88° E 21:07:52 10° N
Cosmos 1174 3.2 21:02:06 10° NW 21:05:05 71° WSW 21:06:57 21° SSE
SPOT 3 Rocket 3.7 21:00:04 10° SSE 21:05:17 80° WSW 21:10:32 10° NNW
NOSS 2-1 (C) 3.4 21:02:15 10° SW 21:05:29 61° NW 21:08:52 10° NE
Cosmos 1624 Rocket 4.3 21:04:49 10° NNW 21:10:00 65° WSW 21:14:45 12° S
Resurs 01 Rocket 2.3 21:05:55 10° S 21:10:16 53° W 21:14:39 10° NNW
NOSS 3-1 (A) 4.2 21:04:09 10° NW 21:11:27 67° NE 21:18:16 17° SE
Meteor 2-6 Rocket 4.1 21:06:28 10° N 21:11:54 83° E 21:16:31 14° SSE
NOSS 2-1 (D) 3.8 21:10:07 10° WSW 21:13:19 50° NW 21:16:41 10° NNE
Cosmos 2266 Rocket 4.5 21:09:42 15° SSE 21:14:21 42° E 21:20:13 10° NNE
Cosmos 1420 Rocket 4.1 21:09:42 10° NNW 21:15:03 86° WSW 21:19:08 17° SSE
Cosmos 1812 2.8 21:12:13 10° NNW 21:16:05 77° W 21:19:06 16° S
Cosmos 1553 Rocket 3.9 21:10:54 10° N 21:17:01 90° ENE 21:22:39 13° S
Cosmos 1782 4.2 21:15:00 10° NNW 21:18:41 36° W 21:22:21 10° SSW
Gblst 52 Del rocket 4.4 21:13:54 10° WNW 21:19:48 89° SSW 21:24:54 18° ESE
Cosmos 1862 3.2 21:16:10 11° S 21:20:01 82° E 21:24:00 10° N
SL-27 R/B 3.2 21:19:11 10° SW 21:22:43 55° WNW 21:26:17 10° NNE
Meteor 2-21 Rocket 4.5 21:16:42 10° S 21:22:49 67° E 21:28:54 10° NNE
ERS-1 Rocket 3.2 21:20:14 21° SE 21:23:24 55° ENE 21:28:19 10° N
Cosmos 2228 Rocket 4.0 21:20:55 10° N 21:24:58 34° ENE 21:26:53 24° ESE
Meteor 2-21 4.4 21:20:24 10° S 21:26:35 90° NNE 21:32:45 10° N
Cosmos 2285 Rocket 4.2 21:22:50 10° NNW 21:29:04 60° ENE 21:33:03 23° SE
Cosmos 1833 4.3 21:24:47 10° SSW 21:30:35 82° WNW 21:36:24 10° NNE
JB-3 4.3 21:26:39 10° NNE 21:30:46 89° ESE 21:34:13 14° SSW
Cosmos 2297 Rocket 3.9 21:31:26 14° E 21:31:26 14° E 21:34:12 10° ENE
BREEZE-M DEB (TANK) 2.5 21:25:45 10° WNW 21:32:59 84° N 21:34:36 26° E
Cosmos 2315 Rocket 4.4 21:27:50 10° N 21:33:58 48° ENE 21:37:37 24° SE
SPOT 5 2.7 21:31:58 27° SSE 21:34:17 65° ENE 21:38:47 10° N
ARIANE 5 R/B 2.6 21:31:51 25° SSE 21:34:26 79° ENE 21:38:52 10° NNW
Cosmos 2333 Rocket 2.2 21:29:21 10° NNW 21:35:02 86° WSW 21:38:33 24° SSE
Cosmos 2322 Rocket 3.9 21:31:46 10° NW 21:36:22 26° WSW 21:40:57 10° SSW
Cosmos 2237 Rocket 3.4 21:32:04 10° NNW 21:37:07 31° NE 21:40:34 17° E
Cosmos 2322 3.7 21:32:15 10° NNW 21:38:01 86° WSW 21:41:29 25° SSE
Cosmos 1452 Rocket 3.5 21:36:19 10° NNW 21:41:37 84° ENE 21:44:29 28° SSE
USA 234 4.5 21:35:49 10° ENE 21:41:48 40° N 21:47:48 10° WNW
Cosmos 1500 Rocket 3.6 21:40:12 26° SSE 21:42:32 63° E 21:46:58 10° NNE
Cosmos 2227 Rocket 4.0 21:44:49 13° E 21:44:49 13° E 21:46:58 10° ENE
Cosmos 2219 Rocket 2.2 21:43:16 10° NNW 21:48:53 82° WSW 21:51:54 28° SSE
S3M 4.2 21:45:12 10° NNW 21:51:37 76° W 21:56:13 20° S
Sich 1 3.7 21:53:27 34° ESE 21:54:12 36° E 21:58:10 10° NNE
ATLAS 5 CENTAUR R/B 2.3 21:49:45 10° NW 21:55:17 89° SW 21:58:39 30° SE
Meteor 2-16 Rocket 4.4 21:50:06 14° S 21:55:29 85° W 22:01:38 10° N
Cosmos 1331 Rocket 4.2 21:52:17 10° NNW 21:57:27 57° ENE 21:59:36 33° SE
Spot 2 Rocket 4.0 21:54:15 21° S 21:57:35 55° W 22:02:37 10° NNW
Cosmos 1408 Rocket 4.3 21:54:03 11° SSW 21:58:05 50° WNW 22:02:18 10° N
Meteor 1-27 Rocket 3.7 21:52:27 10° NNW 21:58:11 87° W 22:01:24 28° S
Cosmos 1110 Rocket 4.1 21:53:36 10° NNW 21:58:54 64° ENE 22:01:08 34° SE
Cosmos 1743 Rocket 3.6 22:02:46 27° SSW 22:05:10 79° W 22:09:37 10° N
SL-16 R/B 3.9 22:04:55 10° N 22:09:23 23° NE 22:12:56 13° E
Cosmos 1655 Rocket 4.2 22:04:01 14° SSW 22:09:41 72° W 22:16:07 10° N
Cosmos 1633 Rocket 4.2 22:10:51 27° E 22:10:53 27° E 22:14:32 10° NNE
Cosmos 494 Rocket 3.8 22:11:18 31° S 22:13:42 72° ESE 22:18:50 10° NNE
Lacrosse 5 1.9 22:12:21 18° SSW 22:15:55 55° SE 22:20:53 10° ENE
IRIDIUM 104 4.2 22:12:10 10° N 22:17:26 83° E 22:19:24 39° S
COSMOS 2487 3.8 22:18:51 17° WSW 22:21:03 36° WNW 22:24:14 10° N
APEX 4.4 22:17:43 27° S 22:21:08 70° ESE 22:27:53 10° NNE
Cosmos 1666 Rocket 4.1 22:21:09 41° ESE 22:21:27 41° E 22:25:40 10° NNE
Cosmos 1602 3.8 22:22:55 56° E 22:22:55 56° E 22:26:42 10° NNE
CZ-4B DEB 4.3 22:23:12 70° W 22:23:12 70° W 22:26:15 10° NNW
IRIDIUM 114 4.3 22:21:18 10° N 22:26:33 83° W 22:28:31 40° S
COSMOS 2428 3.3 22:28:18 10° NW 22:33:44 47° WSW 22:35:52 32° SSW
CZ-4C R/B 3.9 22:28:03 10° NW 22:34:26 39° NE 22:41:11 13° E
Terra 2.5 22:33:23 33° SSW 22:35:06 47° W 22:39:43 10° NNW
IRIDIUM 103 4.5 22:30:30 10° N 22:35:42 70° W 22:37:39 38° SSW
Meteor 1-25 Rocket 4.1 22:33:39 40° S 22:35:45 83° E 22:41:21 10° NNE
COBE Rocket 4.0 22:36:50 47° ESE 22:37:42 55° ENE 22:42:21 10° N
COSMOS 2455 3.8 22:32:18 10° WSW 22:38:06 48° NW 22:43:58 10° NNE
Cosmos 2084 Rocket 3.6 22:34:28 10° NW 22:38:36 58° SW 22:38:56 56° SSW
CZ-3B R/B 2.2 22:29:37 10° WNW 22:39:01 89° S 22:39:48 57° ESE
Meteor 2-4 Rocket 4.3 22:33:20 10° N 22:39:03 48° ENE 22:40:46 37° ESE
USA 229 DEB 4.4 22:34:47 10° NW 22:41:47 48° WSW 22:45:02 31° S
USA 229 4.4 22:34:52 10° NW 22:41:54 48° WSW 22:45:07 32° S
Cosmos 1862 Rocket 3.7 22:40:47 10° N 22:45:04 56° ENE 22:45:19 55° E
Meteor 1-18 Rocket 4.2 22:41:54 10° N 22:47:44 79° ENE 22:49:19 49° SSE
Cosmos 2219 3.5 22:48:17 44° SE 22:48:51 46° ESE 22:54:19 10° NE
USA 267 4.1 22:43:25 10° ENE 22:48:09 30° ESE 22:48:09 30° ESE
H-2A R/B 3.8 22:48:26 10° N 22:52:37 63° WNW 22:53:30 49° SW
Okean 1 3.2 22:48:55 10° NNW 22:52:55 77° W 22:52:58 77° WSW
Spot 4 4.0 22:52:09 51° ESE 22:52:56 58° ENE 22:57:42 10° N
Cosmos 1707 Rocket 3.6 22:48:55 10° NNW 22:53:17 69° W 22:53:48 61° SW
Cosmos 1302 Rocket 3.9 22:51:16 10° NNW 22:56:31 89° ENE 22:57:32 60° SSE
TSX-5 4.0 22:57:39 64° SW 22:58:15 80° WNW 23:03:19 10° NNE
Cosmos 1500 3.3 22:59:15 71° NNE 22:59:15 71° NNE 23:02:45 10° N
Meteor 1-19 Rocket 4.2 22:53:59 10° NNW 22:59:31 72° W 23:00:52 50° SSW
Cosmos 1980 3.7 22:54:28 10° NNW 23:00:08 72° WSW 23:01:24 53° S
SL-08 R/B 4.4 23:00:49 49° SSE 23:02:35 76° E 23:08:43 10° NNE
Cosmos 909 Rocket 4.4 23:02:47 44° SE 23:04:04 49° ESE 23:11:24 10° NE
NOSS 2-2 (D) 4.4 23:02:38 10° NW 23:07:56 75° SW 23:09:49 49° SSE
Okean 1-7 4.0 23:05:40 10° N 23:09:33 35° ENE 23:09:33 35° ENE
Cosmos 1269 Rocket 3.9 23:10:35 63° S 23:11:27 82° ESE 23:16:46 10° NNE
Cosmos 2297 Rocket 2.1 23:13:12 54° SSW 23:14:35 85° ESE 23:20:17 10° NNE
Cosmos 2333 Rocket 4.3 23:15:33 10° WNW 23:18:26 14° W 23:20:33 12° WSW
Cosmos 2237 Rocket 2.5 23:15:56 10° NW 23:21:27 53° WSW 23:22:23 48° SW
ALOS 2 2.7 23:23:09 65° ENE 23:23:10 65° ENE 23:27:31 10° N
USA 234 3.8 23:18:04 11° E 23:24:09 57° NNE 23:30:33 10° NW
Cosmos 1709 Rocket 4.3 23:26:19 45° SE 23:27:32 51° E 23:33:41 10° NNE
Cosmos 2227 Rocket 2.1 23:26:37 62° S 23:27:34 81° ESE 23:33:16 10° NNE
Meteor 1-13 Rocket 4.5 23:22:09 10° N 23:27:48 56° ENE 23:28:50 49° ESE
Cosmos 2219 Rocket 4.3 23:29:25 10° WNW 23:31:54 13° W 23:33:37 12° WSW
Cosmos 2263 Rocket 3.9 23:33:28 19° E 23:33:28 19° E 23:36:53 10° ENE
Meteor 1-14 Rocket 4.3 23:34:11 52° SW 23:35:29 72° WNW 23:41:13 10° N
Cosmos 1386 Rocket 4.5 23:34:43 53° S 23:36:24 88° W 23:42:49 10° N
Cosmos 1745 Rocket 3.9 23:35:14 54° SSW 23:36:49 87° W 23:43:11 10° N
ATLAS 5 CENTAUR R/B 4.0 23:35:23 10° WNW 23:39:34 20° WSW 23:40:09 20° WSW
Cosmos 1536 4.0 23:40:44 34° ENE 23:40:44 34° ENE 23:43:38 10° NNE
Okean 3 4.1 23:41:57 10° N 23:45:46 47° ENE 23:45:46 47° ENE
Cosmos 1869 Rocket 4.4 23:47:06 42° ENE 23:47:06 42° ENE 23:50:50 10° NNE
Cosmos 1633 Rocket 4.3 23:47:55 30° W 23:48:34 31° WNW 23:52:29 10° N
Nadezhda 1 Rocket 4.2 23:43:28 10° NNW 23:49:46 62° W 23:51:16 49° SW
Cosmos 1666 3.6 23:50:39 44° NW 23:50:39 44° NW 23:53:54 10° N
Cosmos 44 3.6 23:45:25 10° NNW 23:50:41 66° NE 23:51:25 58° E
Cosmos 1470 Rocket 4.1 23:51:16 49° WNW 23:51:18 49° WNW 23:55:31 10° N
Thor Agena Rocket 4.3 23:48:01 10° NNE 23:52:34 37° E 23:52:34 37° E
SL-16 R/B 2.0 23:48:28 10° NNW 23:54:10 79° WSW 23:54:47 70° S
